User: anonymous   Login
Location: Washington
(38.8950°N, 77.0370°W)
Time: 20:10:21
(UTC-04:00)
Language:

IDEFIX/ARIANE 42P - Orbit

View from above orbital plane
View from above orbital plane
View from above satellite
View from above satellite

Ground track
Ground track

The orbit data is extracted from the following two-line orbital elements,

1 27422U 02021B   15090.70646390  .00000269  00000-0  12199-3 0  9994
2 27422 098.2651 123.9794 0013636 111.5522 248.7116 14.29155653671195
Epoch (UTC): 31 March 2015 16:57:18
Eccentricity: 0.0013636
inclination: 98.2651°
perigee height: 785 km
apogee height: 804 km
right ascension of ascending node: 123.9794°
argument of perigee: 111.5522°
revolutions per day: 14.29155653
mean anomaly at epoch: 248.7116°
orbit number at epoch: 67119

The dashed part of the orbit path shows where the satellite is in the earth's shadow,  

DLR